{"data":{"norad_id":47256,"epoch":"2026-05-25T02:25:37.886880Z","epoch_age_seconds":66600,"freshness":"FRESH","line1":"1 47256U 20099A   26145.10113295  .00000000  00000+0  00000+0 0  9992","line2":"2 47256   0.0236  84.5149 0003824 206.1805  71.3988  1.00270284 19962","mean_motion":1.00270284,"eccentricity":0.0003824,"inclination_deg":0.0236,"raan_deg":84.5149,"arg_perigee_deg":206.1805,"mean_anomaly_deg":71.3988,"bstar":0,"rev_number":1996,"period_min":1436.118401739,"perigee_km":35770.891796816,"apogee_km":35803.13970564,"semimajor_km":42165.152751228,"source":"CELESTRAK","updated_at":"2026-05-25T13:38:14.098078Z"}}